Wind_Speed
34 35 34 34 33 30 27 24 22 21 20 16 15 15 14 15 16 15 12 12 16 19 22 26 25 22 22 20 18 18 17 17 16 15 13 12 11 11 11 11 10 10 10 10 9 8 8 8 7 8 9 9 9 9 10 11 12 12 12 12 12 12 13 13 14 14 14 14 14 15 17 18 20 21 22 22 23 23 23 22 22 22 21 21 20 19
36 35 33 34 34 32 30 26 23 24 21 17 16 15 16 17 16 15 13 12 14 19 21 26 27 24 23 22 20 20 20 19 17 16 15 14 12 12 11 11 10 10 10 10 10 9 9 8 9 9 10 9 9 10 11 11 13 13 12 12 12 12 12 13 13 13 14 14 14 15 18 19 20 21 21 21 21 21 20 20 20 19 19 18 18 17
36 33 31 33 34 33 31 27 25 25 22 17 16 16 16 17 16 15 14 12 12 18 22 24 27 26 25 24 22 21 21 21 19 17 17 16 15 13 12 12 11 10 11 11 11 10 10 9 9 10 10 10 10 10 10 11 12 13 13 13 13 12 12 12 12 13 14 14 14 15 18 19 20 20 20 19 19 19 19 18 18 18 17 17 16 15
33 31 30 32 33 33 31 28 28 26 22 19 16 17 18 18 16 14 13 11 10 16 22 24 27 29 28 26 23 21 21 22 21 20 19 19 18 16 14 13 12 12 11 11 11 11 11 10 10 10 11 10 11 11 10 11 12 13 13 13 13 12 12 12 12 12 13 14 14 15 18 19 19 19 18 18 17 17 17 16 16 16 15 15 14 13
31 29 28 29 31 32 32 30 28 25 22 20 18 18 19 17 16 15 13 10 8 13 23 26 27 29 31 29 26 24 23 22 22 21 21 20 20 19 17 16 15 14 13 12 12 12 12 12 11 11 11 11 11 11 10 11 11 13 13 13 13 12 12 12 12 12 13 14 14 15 17 19 18 17 17 17 16 15 15 14 14 14 13 12 12 11
29 28 27 28 29 31 34 31 26 24 22 20 18 18 19 17 15 16 15 12 9 10 18 26 27 27 30 31 28 26 24 23 22 21 21 21 21 20 18 17 16 15 15 14 13 13 13 13 13 12 12 11 12 11 11 11 11 12 13 13 13 13 12 12 12 12 12 14 14 14 16 17 17 16 16 16 15 14 14 13 12 11 11 10 10 9
27 27 27 26 28 31 33 30 25 23 19 16 17 16 17 19 17 17 18 15 12 8 9 18 24 26 28 30 30 27 24 23 23 23 22 21 21 20 18 18 17 16 15 15 14 14 14 14 14 13 12 12 12 12 11 11 10 11 13 13 13 14 13 13 12 12 11 12 13 14 14 15 15 15 15 14 14 13 13 12 11 10 9 8 8 8
25 27 28 27 27 29 29 27 24 20 15 14 16 14 15 18 17 16 17 16 13 10 8 10 16 22 26 29 31 30 26 24 24 24 23 22 20 19 19 18 18 16 16 16 15 15 14 14 15 14 13 12 12 12 12 11 10 10 12 12 13 13 13 13 13 12 12 12 13 13 13 14 14 13 13 13 13 13 12 11 10 9 8 7 7 7
23 26 27 24 23 25 26 25 21 18 18 19 17 13 12 15 16 16 16 17 15 11 9 9 11 16 22 28 33 33 31 27 25 25 24 23 21 20 20 19 18 17 16 16 16 16 15 15 15 14 14 13 13 12 12 12 11 10 10 11 12 13 13 13 13 12 12 12 12 13 13 13 13 12 12 12 11 11 10 9 8 7 7 6 6 6
17 20 23 21 21 24 24 23 21 21 23 20 17 15 14 14 15 15 14 15 16 12 11 11 10 11 16 23 31 35 33 29 26 27 25 24 23 21 21 19 18 18 17 17 18 17 17 16 15 15 14 14 13 12 12 11 11 11 10 10 11 12 12 12 12 12 12 12 12 12 12 12 12 11 11 10 10 9 9 8 7 6 5 4 4 4
16 16 19 21 23 21 20 23 25 26 23 17 18 18 16 13 11 12 12 11 12 12 11 11 10 10 10 15 26 34 33 28 29 29 27 24 23 22 22 21 20 18 18 18 18 18 17 16 15 15 15 14 14 12 12 11 11 11 10 10 11 12 12 11 11 12 12 12 11 12 12 11 11 10 10 9 9 8 7 7 6 5 4 3 3 2
22 16 15 19 22 21 23 27 26 26 21 16 19 20 16 14 11 11 12 11 10 10 11 11 10 8 7 7 14 25 29 31 32 32 28 24 23 23 22 22 21 19 19 19 19 18 17 16 15 15 15 14 14 13 13 12 11 11 11 10 11 11 11 11 11 11 11 11 11 11 11 11 10 10 9 9 8 8 7 6 5 4 3 2 2 2
24 18 10 15 22 24 28 31 26 25 21 16 20 22 17 15 14 12 12 9 8 9 10 10 8 7 7 7 9 15 23 32 34 32 29 25 23 23 22 21 21 19 18 19 18 18 17 16 15 15 15 14 14 13 13 12 11 11 11 10 10 10 11 11 11 11 11 11 11 11 10 10 10 10 9 8 8 7 6 5 4 3 2 2 1 2
25 24 15 17 21 24 28 31 26 21 19 17 19 23 20 16 16 13 10 9 8 9 9 9 8 7 7 8 10 11 16 27 34 33 30 27 25 25 23 21 20 19 19 19 18 18 17 16 16 17 17 16 15 14 13 13 12 11 11 11 11 11 10 10 11 11 11 11 11 11 10 10 10 9 9 8 7 6 6 5 4 3 2 2 2 1
22 26 20 18 17 22 29 31 27 19 14 15 15 22 23 19 17 15 12 10 9 10 9 9 8 8 8 8 8 10 12 22 34 36 32 30 28 27 25 23 21 20 20 20 19 19 18 18 17 17 17 17 17 16 14 14 13 12 12 11 11 11 11 10 10 11 11 11 11 10 10 10 9 8 8 7 6 5 5 4 4 3 2 1 1 1
16 16 12 9 9 20 31 31 29 25 18 15 18 22 21 18 17 17 13 8 6 7 7 8 8 7 8 8 7 9 11 19 32 37 34 31 29 27 26 25 23 22 22 22 21 20 20 19 19 18 18 18 18 17 16 16 15 14 13 12 11 11 11 11 11 10 10 11 11 10 10 10 9 8 7 7 6 5 5 4 4 3 3 2 2 1
17 13 8 9 9 19 32 30 28 28 21 17 18 18 14 16 18 18 16 12 8 6 5 6 7 6 7 8 7 7 8 18 34 37 32 30 31 30 28 25 24 24 24 23 22 21 20 20 20 19 19 19 18 17 18 18 17 15 14 13 12 12 12 12 12 11 11 11 11 10 10 10 9 9 8 8 7 6 6 5 5 5 4 3 3 3
21 17 14 14 13 17 32 31 27 26 20 13 11 11 13 17 20 19 19 19 14 9 6 6 6 5 6 7 7 6 5 14 35 40 32 30 32 32 29 25 24 25 25 24 24 23 22 21 21 20 20 20 19 18 19 19 19 17 16 15 14 13 13 13 13 13 12 12 12 11 11 10 10 10 10 10 9 8 8 7 7 6 5 5 4 4
22 19 14 14 12 14 28 32 26 23 20 18 15 12 14 18 20 19 17 18 15 10 8 7 7 6 4 4 6 5 3 6 25 34 32 31 31 31 29 27 25 26 26 25 25 24 23 22 22 21 21 21 20 19 20 20 19 19 18 17 15 15 13 13 12 12 13 13 12 12 12 12 11 11 11 11 10 10 9 9 8 8 7 6 5 5
20 18 13 12 12 12 21 29 30 24 21 19 17 17 16 16 17 17 14 15 16 11 8 7 7 7 5 3 5 6 3 2 10 20 24 25 27 30 30 28 27 27 26 25 25 25 23 23 22 22 22 22 21 20 21 21 20 19 19 18 18 17 15 13 13 12 12 13 13 13 12 12 13 12 12 12 11 10 10 9 9 9 8 7 7 7
23 24 19 15 15 13 15 19 26 28 25 23 19 19 22 19 14 13 12 14 15 14 12 11 9 8 6 4 5 6 5 3 4 10 16 16 18 26 32 32 29 27 26 26 24 24 24 24 23 23 22 23 22 21 21 21 20 20 20 20 19 18 17 15 14 13 12 13 13 14 13 13 13 13 13 13 12 11 11 11 11 10 9 8 8 8
26 24 21 18 18 17 13 11 15 22 27 28 24 22 22 20 15 12 11 13 14 13 14 13 10 8 7 6 5 5 7 7 7 8 12 13 13 20 31 35 32 29 27 26 25 25 25 24 24 23 22 23 23 22 22 21 21 20 20 20 20 19 18 17 16 15 14 14 14 14 14 14 14 14 14 13 13 13 13 12 12 11 10 10 10 9
26 21 23 23 19 19 15 10 11 16 24 26 24 24 21 17 16 13 10 11 13 12 12 14 13 9 8 7 6 5 7 8 8 8 9 11 11 18 30 34 34 32 29 27 26 25 25 25 25 24 23 23 22 22 22 22 21 21 21 20 20 19 19 18 17 16 16 15 15 14 14 15 15 14 14 14 14 14 14 13 13 12 12 11 11 11
25 21 25 24 17 17 16 9 9 12 20 17 14 20 20 15 14 15 13 13 13 14 14 15 15 12 8 7 5 5 6 7 9 9 7 8 7 16 31 35 33 32 29 27 27 26 25 26 26 25 23 23 22 21 22 21 21 21 21 20 20 20 20 19 19 18 18 17 16 16 15 15 15 15 14 15 15 14 14 14 14 14 14 13 13 13
25 24 25 24 19 19 18 13 9 8 18 22 15 15 14 10 10 12 13 14 12 12 15 15 14 12 9 7 4 5 5 5 8 8 7 7 5 13 25 29 29 29 28 27 27 27 26 26 26 25 23 23 22 22 21 20 20 21 20 20 21 21 21 20 20 20 19 19 19 18 18 17 16 16 16 16 15 15 15 15 15 15 15 14 15 14
27 26 25 25 24 24 24 22 14 8 18 27 21 12 6 6 9 9 11 14 12 12 15 15 14 12 10 7 4 5 6 6 7 8 8 9 9 13 19 22 22 23 25 27 28 29 28 27 26 25 23 23 23 23 21 20 19 19 20 20 20 20 20 20 20 21 20 20 20 20 20 19 18 18 17 17 17 16 16 16 16 16 15 15 16 16
29 27 27 26 27 29 28 25 17 10 16 22 18 16 13 12 14 13 12 15 14 15 17 16 15 14 13 10 7 7 7 7 8 9 9 11 14 15 17 19 18 17 17 20 26 29 31 30 28 25 24 24 23 23 22 21 21 20 20 20 19 19 19 19 20 21 20 20 20 21 21 21 21 20 19 19 19 18 18 18 18 17 16 16 17 17
31 30 31 28 29 31 27 23 18 15 16 19 19 20 21 18 14 12 16 19 16 15 16 16 16 15 15 14 13 11 10 9 9 9 8 10 12 13 15 17 19 19 16 16 20 26 30 32 30 28 26 25 24 24 24 22 22 22 21 20 20 20 20 20 19 20 20 20 20 21 21 21 21 21 21 21 20 20 19 19 19 19 18 18 18 17
32 33 33 29 28 30 28 24 23 19 16 16 19 18 19 20 19 18 22 24 19 13 14 18 20 17 15 15 15 14 13 12 10 8 6 7 9 14 17 17 17 20 20 17 16 20 25 29 31 30 28 27 26 25 24 23 22 21 20 19 19 20 20 20 20 20 20 19 20 20 21 21 21 22 22 22 22 21 21 21 21 21 20 20 19 19
32 35 35 30 25 27 29 27 23 21 17 14 17 18 21 25 26 26 24 22 19 16 16 20 22 18 14 15 18 17 15 12 11 9 7 6 8 13 16 15 15 19 23 23 20 18 19 24 29 31 30 30 29 27 25 24 22 21 20 18 18 19 20 21 20 20 20 20 19 20 20 20 20 21 22 22 22 23 22 22 22 22 22 22 22 21
31 33 35 34 28 25 28 27 24 23 16 15 16 19 25 28 27 26 23 22 20 20 23 24 22 17 14 15 19 20 17 15 14 13 11 10 10 12 14 14 15 19 22 24 24 23 22 22 25 31 33 31 30 28 25 24 22 22 22 21 20 20 19 20 21 21 21 20 19 20 20 21 21 21 22 22 23 24 23 23 24 23 23 24 23 22
28 31 32 34 33 31 28 28 28 25 18 18 17 19 26 29 26 24 24 25 24 24 27 27 23 21 19 18 20 21 19 18 18 17 15 14 14 14 13 13 14 17 19 21 23 27 28 24 22 28 32 31 30 28 25 24 23 23 24 24 23 21 20 22 23 23 23 23 22 22 22 23 23 22 22 22 22 23 23 24 25 25 24 24 23 22
24 29 31 32 35 35 32 31 33 27 23 23 22 22 26 28 28 26 26 27 29 30 30 27 25 25 23 19 20 22 21 19 20 19 17 16 16 15 14 12 12 12 14 17 20 25 28 25 23 26 29 30 31 30 28 27 26 25 27 26 24 23 23 25 25 24 24 25 25 25 24 25 24 23 23 22 22 23 24 25 25 25 24 23 23 23
18 26 30 31 34 36 33 31 32 28 26 28 26 24 25 28 29 29 29 31 33 34 32 29 28 28 25 21 20 22 22 19 18 19 18 18 17 17 16 17 16 14 13 14 19 22 23 22 23 25 27 29 30 29 28 27 27 27 28 28 27 26 26 26 26 26 26 27 27 27 26 26 26 25 25 24 24 24 26 26 24 24 24 24 24 24
14 21 28 30 33 35 34 31 30 29 30 29 24 22 25 29 32 32 32 34 35 35 33 32 32 31 29 25 21 20 20 17 16 19 19 19 19 18 18 19 19 18 16 15 17 20 19 20 21 21 22 22 23 23 21 19 19 19 20 21 25 29 31 31 30 30 29 29 30 30 28 28 28 28 27 27 26 26 28 27 25 23 24 25 25 24
10 15 23 30 34 35 34 31 29 30 31 28 25 25 26 30 34 35 33 33 33 33 31 30 31 31 31 29 25 23 21 19 18 19 19 20 21 20 21 21 20 20 19 18 18 20 21 21 20 18 18 18 19 19 17 16 15 15 15 16 20 27 33 36 35 33 32 32 33 32 31 31 31 31 30 30 29 28 28 28 27 26 26 25 25 25
9 11 18 29 35 36 33 29 27 29 30 31 31 31 30 31 34 36 36 35 33 32 32 31 30 30 30 32 30 27 25 25 23 21 19 19 20 21 22 22 22 22 21 20 19 19 22 25 25 21 17 16 17 17 16 16 17 18 19 20 20 24 30 35 35 33 31 32 34 34 34 34 34 34 33 33 32 30 29 30 30 29 29 27 26 27
11 13 16 25 34 36 33 29 28 29 32 34 34 32 31 32 33 34 36 37 35 33 33 34 33 32 31 32 31 29 28 28 27 25 23 22 22 22 21 19 20 21 21 21 19 17 17 20 23 23 20 18 18 19 19 19 19 19 21 22 21 21 23 25 26 26 23 23 28 33 36 37 36 35 35 34 34 33 32 32 32 32 31 30 29 29
13 14 14 19 27 33 32 29 28 29 31 34 34 33 31 31 32 32 33 35 37 37 36 36 36 35 34 34 34 32 31 30 29 28 27 26 26 27 24 21 19 18 18 19 18 17 15 14 14 17 18 17 17 17 18 19 19 18 19 20 20 21 22 21 20 20 20 19 22 26 31 37 39 37 35 35 35 35 34 34 34 33 32 32 32 33
15 15 15 15 19 25 29 30 29 28 28 30 32 33 32 31 30 31 32 33 35 36 38 38 38 38 37 37 37 35 34 33 32 30 28 26 26 28 29 28 25 22 20 19 17 17 18 18 18 19 20 21 21 20 21 22 20 17 16 18 20 22 23 23 22 22 22 20 19 20 23 30 37 38 36 35 35 35 35 36 36 34 33 34 36 35
15 17 17 17 15 17 22 27 30 30 27 26 26 28 30 32 29 27 29 32 33 34 35 37 38 39 38 37 37 36 34 33 33 31 29 27 27 27 29 31 30 29 28 26 24 23 22 22 24 26 25 25 26 26 26 27 25 21 19 20 22 23 24 25 25 24 23 21 20 19 19 22 28 34 36 37 36 35 35 36 37 37 36 38 39 38
13 17 19 20 20 20 21 26 30 32 29 26 24 23 25 29 29 27 26 28 30 32 33 33 34 35 35 34 34 33 32 30 30 28 27 26 27 28 29 31 31 31 31 30 28 27 25 23 24 24 25 26 28 28 28 29 29 27 26 25 26 26 27 28 27 26 26 26 24 22 21 21 23 27 31 34 36 35 34 33 35 38 40 41 40 39
10 16 19 20 21 22 23 27 31 33 31 29 26 23 23 26 28 28 26 26 28 31 32 32 32 32 32 32 32 31 31 30 29 28 26 24 24 25 25 25 26 27 30 31 29 28 27 27 26 26 26 27 28 29 29 30 30 29 29 29 29 29 29 29 29 29 29 29 28 26 26 26 26 27 28 29 30 30 30 30 30 33 38 41 41 40
9 12 15 17 17 18 21 24 27 29 30 29 26 23 22 24 26 26 26 26 27 29 31 33 32 31 31 31 30 30 31 31 30 30 30 28 27 26 25 24 23 23 25 28 29 30 30 30 30 30 30 30 31 32 32 32 31 30 30 30 31 31 31 30 30 30 32 31 30 31 30 29 27 28 28 27 24 23 25 26 24 25 30 35 38 37
11 11 13 15 16 16 18 20 22 23 24 26 26 24 22 23 24 24 24 25 27 28 30 32 32 32 32 32 31 31 31 31 31 31 31 32 32 32 32 31 30 28 26 26 27 28 29 31 32 33 34 34 35 35 35 35 34 33 32 31 31 32 32 31 31 30 31 32 31 32 33 31 30 30 30 29 26 23 24 26 25 26 28 29 32 34
13 13 13 14 15 16 17 18 19 19 20 21 24 24 23 23 24 24 23 24 25 27 28 30 31 31 31 32 32 32 31 31 31 31 31 31 31 32 33 33 32 31 31 31 31 30 30 31 32 34 35 36 36 36 36 37 37 36 34 32 31 31 30 30 31 31 31 31 30 31 33 33 33 35 34 34 33 31 32 34 34 33 31 28 28 30
12 12 12 13 14 15 17 18 18 18 17 18 20 21 22 22 23 24 23 24 24 25 27 28 29 29 30 30 30 31 31 31 31 31 31 30 30 30 31 30 29 28 28 30 32 34 34 34 34 36 37 38 39 38 37 36 36 37 36 33 32 31 30 28 29 30 31 31 30 30 31 31 32 34 33 34 34 33 35 37 37 35 33 31 30 28
11 10 10 12 13 14 16 17 18 18 17 17 18 19 20 21 21 22 22 22 23 24 26 27 29 30 30 30 30 30 29 29 29 30 30 30 30 30 30 30 29 28 28 29 30 32 34 34 35 36 38 40 41 41 39 38 36 36 37 36 35 34 32 29 29 30 31 32 32 32 32 32 33 33 33 33 33 33 34 36 36 35 35 35 35 33
11 10 10 11 11 12 13 14 16 16 16 17 18 18 18 20 21 21 21 21 22 23 24 25 28 30 30 31 31 31 30 30 30 29 30 30 30 30 31 31 31 31 30 31 31 31 32 33 33 35 37 39 41 40 40 39 38 37 37 37 38 37 36 34 34 34 34 35 36 35 35 35 36 36 36 34 33 34 35 35 34 35 36 36 36 36
11 10 12 12 11 11 11 12 13 13 14 15 16 17 18 19 20 21 22 22 22 22 23 23 25 26 28 30 30 31 31 32 31 31 31 31 31 31 31 31 31 30 29 30 31 31 31 32 33 35 36 38 39 40 39 38 38 38 38 38 39 39 39 38 39 39 39 39 39 38 38 38 38 39 39 37 35 35 35 35 35 35 35 36 36 36
10 10 10 11 11 11 12 12 11 11 12 12 14 15 17 19 20 21 22 23 23 23 24 24 24 25 27 28 29 29 30 30 31 31 31 31 31 32 33 33 34 33 31 31 32 32 32 32 33 34 35 37 38 39 40 40 39 39 38 39 39 40 40 40 40 41 41 42 42 42 40 39 39 39 39 38 37 35 34 35 36 36 36 35 36 36
Wind_Direction
212 211 207 200 199 203 208 210 214 224 226 224 227 228 224 226 232 233 245 250 223 212 214 210 198 189 187 185 191 195 191 191 191 186 186 185 181 185 189 186 183 183 186 182 176 183 180 162 152 143 133 125 118 110 105 101 99 99 101 102 103 106 108 112 117 121 122 117 108 108 113 116 117 118 118 118 118 117 116 117 117 117 116 116 115 113
212 209 206 202 200 201 205 207 212 222 224 222 224 224 222 227 229 228 244 255 225 210 213 212 201 191 192 191 190 192 189 191 194 187 186 189 188 190 191 187 185 184 187 187 181 184 183 167 160 153 143 133 123 114 110 108 105 103 104 106 107 110 112 114 119 123 125 120 113 113 118 120 121 122 121 120 119 119 118 118 117 116 115 114 112 110
213 208 203 202 201 202 203 204 210 220 222 219 222 223 225 230 231 229 244 260 237 213 213 218 209 194 193 196 193 192 191 191 193 189 188 189 190 194 193 188 187 186 190 192 188 185 181 173 165 158 151 142 130 121 116 114 110 106 105 108 109 113 117 119 122 125 128 124 117 119 122 124 125 125 125 123 121 121 121 121 120 118 117 114 110 107
212 206 203 202 202 203 202 204 210 217 221 221 220 225 228 230 231 233 243 257 250 218 209 217 215 201 198 200 195 194 195 195 193 190 190 190 189 193 194 188 185 189 195 196 193 188 182 177 169 162 159 152 139 130 125 120 116 111 105 106 110 114 120 123 126 127 129 127 123 123 126 128 128 128 127 125 124 123 123 122 122 120 117 114 110 105
211 204 202 202 202 204 202 204 211 215 220 223 221 225 228 229 230 233 238 245 251 225 208 212 215 206 203 201 196 194 195 197 198 195 194 193 191 193 194 191 187 191 197 199 196 190 186 182 172 166 167 160 145 137 133 126 121 115 109 107 110 114 120 126 130 132 133 132 128 127 131 132 132 132 130 128 127 126 125 124 122 119 116 113 109 104
208 201 199 200 202 205 205 203 207 216 218 221 222 224 228 231 230 231 238 243 250 240 214 212 214 209 207 205 200 198 197 196 197 199 200 199 196 194 195 194 192 193 197 200 200 193 190 184 173 170 173 167 152 144 141 134 127 121 115 112 110 112 120 127 132 137 139 138 135 133 135 137 137 137 135 132 131 129 127 126 125 122 118 114 110 105
206 198 194 197 201 205 208 203 203 213 217 223 226 220 223 229 230 234 241 244 249 255 224 214 214 213 212 208 203 204 205 200 196 199 202 203 200 195 195 198 196 195 196 200 201 197 192 185 175 171 175 173 159 152 149 142 136 129 123 118 114 114 118 125 132 139 143 144 143 141 139 139 141 141 139 136 136 135 133 133 132 128 122 117 111 102
204 198 193 193 200 204 207 203 200 207 213 223 224 214 219 226 228 238 242 242 247 250 233 219 217 216 214 210 209 212 213 207 201 200 201 203 203 198 195 199 199 197 197 198 201 200 195 189 181 173 174 178 169 161 157 150 144 137 130 124 120 118 119 123 131 139 146 150 151 149 146 144 144 145 145 144 142 141 140 139 137 132 126 119 110 98
199 202 194 189 196 200 202 198 194 202 210 216 219 214 220 224 224 235 241 241 245 248 238 231 227 223 220 217 218 218 215 211 206 202 200 199 201 202 199 197 199 198 196 197 199 200 196 192 186 176 174 178 178 172 163 156 151 144 136 131 127 125 122 123 128 137 147 154 157 158 157 154 152 152 152 151 149 147 145 143 140 136 129 122 111 100
187 202 190 183 193 197 197 190 186 200 211 217 223 220 219 220 221 229 237 242 242 244 244 242 242 239 234 229 225 220 214 212 208 201 199 198 197 201 201 196 198 197 195 197 198 198 197 193 189 182 177 179 183 180 169 162 159 152 144 139 136 133 129 125 126 134 145 155 163 165 166 166 163 160 159 158 155 151 149 147 144 142 136 127 114 103
165 194 195 188 190 191 186 180 186 199 206 215 220 218 216 215 222 227 228 234 230 228 234 237 239 244 253 248 232 222 215 211 208 200 196 197 196 200 201 195 196 196 195 198 198 199 198 195 192 188 183 182 185 184 177 175 171 161 154 149 146 142 138 135 132 134 140 149 161 167 171 175 175 171 169 167 163 160 159 155 151 150 147 137 118 97
165 179 203 199 187 180 171 174 190 201 202 211 218 218 216 208 214 220 217 222 218 211 219 227 234 242 253 253 223 212 206 202 201 197 195 197 197 201 203 196 195 197 197 198 199 199 199 197 195 195 191 186 186 186 184 184 181 172 164 159 157 154 149 146 143 141 140 145 155 164 170 176 179 181 179 176 173 172 170 166 161 157 154 146 125 97
173 165 196 216 202 191 176 173 187 199 203 210 213 218 220 207 209 215 215 225 227 216 221 227 233 233 223 212 198 196 200 200 195 194 196 196 195 202 205 199 196 198 198 197 198 198 198 198 197 198 197 190 187 189 188 189 188 182 176 168 166 164 159 154 153 153 151 150 153 157 162 170 176 179 182 183 181 180 181 180 179 172 165 150 129 106
175 162 181 215 209 199 189 181 178 189 215 222 208 211 219 217 213 218 226 235 237 230 227 229 229 226 215 205 202 203 212 208 198 194 196 194 194 200 204 201 196 197 198 197 199 198 197 201 201 201 201 195 190 189 189 190 191 191 187 179 173 170 168 165 164 165 164 162 161 158 158 163 170 174 178 182 182 184 191 194 197 196 184 164 140 122
178 169 186 209 201 191 188 184 173 171 210 233 228 220 220 222 217 218 233 237 238 237 231 231 230 228 224 216 217 221 226 215 201 194 194 193 193 194 198 200 196 195 197 198 201 200 198 202 205 204 205 200 193 188 189 191 193 196 195 190 183 177 176 176 177 177 173 171 171 167 166 166 167 171 172 175 180 184 194 201 203 210 217 210 178 162
183 179 194 216 205 186 181 182 177 170 180 206 231 234 225 222 217 216 225 220 215 230 230 232 234 236 235 230 239 241 235 216 200 194 194 193 192 192 196 200 197 195 199 200 203 204 202 205 208 207 208 207 199 190 190 193 194 198 200 197 192 188 184 182 186 188 182 180 180 178 179 177 175 180 177 174 185 190 195 204 207 219 233 239 241 228
178 187 208 237 232 189 181 187 186 179 183 196 216 235 228 217 216 218 227 232 241 251 247 239 238 252 256 245 246 263 255 214 200 196 194 191 193 198 201 201 199 198 201 202 204 207 206 208 211 211 211 211 205 196 194 196 196 197 201 202 199 196 193 188 190 193 190 189 189 187 189 187 187 195 195 192 197 203 208 215 218 226 235 238 235 214
170 178 195 221 233 195 185 195 198 188 185 177 185 223 224 212 216 222 230 240 250 258 258 257 259 264 269 259 250 278 301 207 197 195 193 190 194 200 203 203 201 201 203 203 205 208 209 210 213 216 215 213 210 205 201 199 198 197 200 205 205 203 203 198 195 195 195 195 195 194 194 193 196 204 207 207 207 209 216 221 222 226 229 228 224 204
169 174 182 202 220 205 187 191 198 187 169 160 167 194 215 217 219 222 232 240 245 251 254 257 269 271 273 274 253 261 330 182 190 194 195 195 197 200 203 204 204 204 205 205 206 209 212 212 214 217 219 217 212 211 211 207 203 200 200 203 207 209 209 207 205 202 200 199 198 200 199 199 203 207 210 214 214 214 219 221 222 224 222 218 216 205
167 163 164 187 196 210 200 189 191 184 170 180 188 182 194 216 222 224 234 242 241 241 246 257 272 272 266 270 262 258 269 149 182 191 194 197 202 207 209 207 206 207 207 207 209 211 213 215 216 218 221 221 215 212 216 214 209 205 203 203 207 211 212 212 213 212 210 206 201 201 203 205 209 211 211 213 214 215 217 218 220 221 219 216 217 214
152 144 149 176 178 196 218 198 192 194 193 206 213 194 194 204 219 233 233 234 242 244 248 259 269 268 255 250 266 267 257 238 211 200 195 197 208 214 214 210 207 207 208 208 210 213 215 217 219 219 222 225 219 214 216 218 216 212 209 206 207 211 213 213 215 216 218 219 213 206 205 207 212 215 215 215 216 218 218 217 219 218 215 215 219 220
155 152 156 172 173 179 207 216 209 206 204 210 215 209 205 199 207 235 233 224 233 242 251 255 252 253 250 237 237 253 256 247 244 233 213 213 226 220 213 210 207 206 209 210 209 212 216 219 222 221 222 227 225 220 219 219 219 219 216 214 212 212 214 216 217 217 218 223 224 219 213 213 216 217 218 219 218 220 221 221 218 216 215 215 216 219
163 165 164 166 169 167 177 219 234 208 202 208 209 209 210 207 214 228 229 225 224 225 242 250 249 255 258 242 220 227 252 245 239 244 221 219 234 217 206 206 205 205 209 212 212 213 214 218 223 221 220 225 227 227 225 222 221 222 222 220 217 216 216 217 218 219 219 222 227 228 226 224 224 224 225 226 224 223 225 225 222 219 219 217 217 220
160 164 160 154 152 143 151 204 240 202 189 191 210 219 213 215 235 238 227 225 226 226 232 242 251 258 254 244 219 212 246 247 239 248 232 219 218 199 199 202 203 205 211 214 216 218 216 218 224 223 220 223 227 229 230 227 224 223 224 225 224 221 220 220 220 220 221 222 223 227 231 232 232 232 232 233 232 231 230 229 227 226 224 221 220 222
164 161 153 149 146 133 143 185 222 213 184 172 189 223 211 205 241 254 245 232 232 244 241 237 247 252 244 244 231 211 229 238 238 249 246 232 192 174 188 196 200 206 215 219 221 222 221 221 226 226 222 223 226 230 232 232 230 227 226 228 227 225 223 222 222 221 222 224 223 223 226 231 234 236 237 237 237 237 236 235 233 233 232 230 229 227
175 165 154 155 153 139 146 173 186 194 186 177 176 185 194 236 234 233 252 246 245 263 258 246 247 250 248 245 234 221 220 221 229 231 227 224 205 178 176 184 195 207 217 222 224 226 226 225 227 229 227 226 227 228 230 231 232 230 228 228 229 229 227 225 226 225 224 225 225 224 224 227 231 236 239 240 240 239 239 239 239 238 237 236 238 236
184 173 164 159 153 148 158 178 182 163 169 176 170 158 173 218 217 203 228 241 244 255 256 255 258 259 256 246 243 254 245 229 224 218 216 220 215 202 189 187 191 199 208 218 223 226 227 226 226 227 227 228 229 229 230 231 232 231 228 227 229 231 230 228 229 230 229 227 228 228 227 226 228 232 236 240 242 242 241 241 242 242 240 238 240 241
190 176 171 167 157 154 162 173 168 143 148 174 179 170 178 188 185 193 218 227 235 248 251 256 260 258 255 246 246 256 250 235 221 219 233 235 224 218 216 213 209 206 207 215 223 227 227 225 224 223 223 226 228 228 229 231 231 230 229 227 228 231 232 229 229 232 233 231 231 231 231 230 230 231 234 238 241 243 244 244 246 246 245 243 243 241
193 179 173 170 162 160 163 165 163 145 142 174 183 184 195 194 184 196 211 212 220 240 253 257 258 257 253 245 238 236 236 237 231 223 228 230 222 222 225 228 226 220 217 216 223 229 226 223 222 222 222 223 226 226 227 231 233 232 234 235 232 232 232 229 228 232 234 234 234 234 234 233 234 234 236 238 240 242 244 245 247 248 248 248 247 245
193 189 183 176 168 167 167 170 169 149 145 183 191 192 211 211 203 204 201 196 208 230 241 245 249 253 251 244 239 237 236 237 236 226 211 205 218 225 227 228 225 225 224 221 221 221 219 220 224 224 222 222 226 228 225 226 228 231 235 239 236 236 238 236 232 231 234 236 237 239 239 238 238 238 239 241 242 243 243 244 246 248 250 250 249 249
191 195 195 191 191 185 175 176 173 157 168 214 208 198 209 213 213 211 196 189 205 225 234 235 234 232 230 231 237 243 243 239 237 233 221 216 224 231 237 238 230 228 229 223 220 218 214 216 222 224 222 221 226 229 228 226 228 230 230 230 232 234 239 244 241 236 236 239 238 240 242 241 240 240 240 242 243 244 244 244 245 246 248 250 251 252
195 195 195 195 197 195 186 180 174 173 201 221 207 207 209 206 214 215 198 195 206 217 229 235 229 221 217 216 223 235 241 238 237 235 229 228 232 234 243 255 251 241 235 229 226 223 220 217 218 220 219 221 226 230 231 232 234 236 233 231 231 228 227 235 240 238 238 237 235 235 238 239 240 241 243 245 248 250 250 248 248 247 248 252 256 257
204 199 195 190 191 191 188 184 181 188 213 214 204 215 211 198 207 213 202 201 208 213 223 232 230 225 221 214 217 228 235 235 236 237 233 231 232 230 233 249 256 241 228 226 224 220 220 223 227 222 216 217 224 227 228 231 233 235 236 235 234 231 226 225 225 228 236 238 234 233 236 239 239 239 241 244 248 252 254 253 254 255 254 254 255 257
212 205 199 192 189 187 186 188 189 195 213 214 210 215 211 198 201 209 208 207 210 213 221 227 229 230 230 226 225 230 234 235 237 239 238 235 233 228 226 237 246 238 229 226 217 212 211 215 223 224 216 216 223 225 225 228 229 232 236 238 238 238 234 228 226 231 239 242 239 237 236 239 240 240 240 241 242 246 250 249 251 254 256 255 253 253
219 208 201 194 190 189 188 192 195 199 207 212 211 213 213 205 200 205 212 214 213 216 220 223 226 230 233 234 234 235 235 231 227 232 237 238 236 234 234 239 241 236 236 233 222 217 213 207 209 213 208 210 218 218 214 215 219 228 237 242 244 243 240 238 239 239 237 239 243 244 242 242 241 242 243 243 243 246 247 246 245 247 250 252 253 253
214 209 201 192 188 188 192 197 203 205 204 208 212 213 214 210 205 206 212 216 216 216 218 222 227 230 233 234 236 242 243 236 225 222 228 238 241 240 239 239 237 231 231 233 230 229 228 224 220 211 196 195 208 216 217 218 223 234 241 243 245 243 240 239 240 237 234 238 246 247 246 245 244 243 245 245 245 247 249 250 248 246 246 249 252 254
190 202 198 191 186 187 192 197 203 206 205 207 213 215 214 213 212 211 214 216 216 215 217 222 226 229 232 232 235 242 245 243 237 228 225 234 239 235 231 230 230 228 226 228 226 226 230 232 232 227 213 205 213 223 231 235 239 245 247 243 239 238 237 237 238 238 237 240 245 246 246 247 247 247 247 248 249 249 250 251 251 251 252 253 254 254
192 199 193 191 191 191 194 197 201 207 209 209 212 214 215 216 216 216 217 219 219 217 219 223 225 227 230 232 236 241 243 245 246 243 239 238 237 235 231 227 225 224 223 222 218 217 224 229 230 230 230 230 233 235 238 242 244 243 242 241 239 238 239 238 240 244 245 244 246 247 246 245 246 247 248 250 251 251 250 250 251 254 256 256 256 254
204 205 199 195 198 199 202 205 207 209 212 214 215 217 219 222 221 219 218 219 221 222 223 224 225 227 230 233 238 242 244 246 246 246 246 247 244 241 237 232 228 223 218 217 212 205 205 207 212 222 232 240 244 242 240 243 246 244 244 246 245 245 246 245 247 251 256 256 256 254 248 243 243 246 248 250 251 252 253 255 255 254 254 254 255 253
209 208 202 197 203 209 212 216 217 214 213 216 218 220 224 227 226 223 220 219 220 222 224 227 228 229 230 233 237 241 245 246 245 244 245 247 247 244 238 236 235 229 221 222 224 225 227 230 234 239 243 247 248 246 245 247 249 252 252 250 248 247 247 250 253 254 255 258 262 264 255 243 241 242 244 248 252 253 254 255 254 252 251 251 253 252
220 218 205 193 198 212 218 221 221 219 219 220 220 223 227 229 228 227 225 222 221 223 225 228 230 230 231 233 236 239 242 245 246 246 244 242 243 244 244 244 242 238 236 240 245 248 249 247 245 245 246 248 249 249 248 249 250 253 252 249 250 252 252 253 256 256 257 258 261 266 262 248 241 241 243 248 254 256 256 256 255 252 251 250 250 250
228 228 220 208 204 208 217 221 221 222 224 224 224 227 231 232 232 232 228 225 224 224 225 227 230 232 233 233 234 236 239 241 242 241 238 236 238 243 247 249 248 245 244 244 245 245 246 244 243 244 245 248 252 253 253 253 255 256 255 254 254 256 256 258 260 260 260 260 261 262 260 254 248 246 248 252 257 259 259 259 257 253 251 251 251 251
224 227 228 224 218 216 220 223 223 224 224 225 227 231 233 236 238 237 234 232 230 227 226 228 231 233 234 235 234 235 237 239 239 237 236 237 237 238 240 245 248 247 245 244 242 241 242 244 247 248 247 247 252 254 255 256 257 258 259 258 257 257 258 259 261 262 261 261 262 263 261 259 256 255 255 257 260 259 257 257 257 256 254 253 252 253
219 221 223 228 230 229 231 230 228 229 230 230 233 237 238 239 242 242 240 240 239 234 230 230 233 235 236 237 238 238 239 240 242 242 243 242 239 235 235 241 248 250 250 248 245 242 242 245 249 252 252 251 252 253 254 255 255 255 257 258 259 259 259 259 259 260 260 261 262 262 261 259 257 256 255 254 255 255 254 254 254 257 258 256 251 251
224 218 216 224 230 234 238 238 236 236 238 238 239 242 243 242 243 245 245 244 244 242 237 235 236 239 241 242 244 244 243 244 246 246 247 247 245 243 246 250 253 254 254 253 252 250 249 249 252 255 256 256 255 255 256 257 257 256 255 255 256 257 259 259 259 258 259 261 261 259 257 256 255 255 253 249 247 249 253 256 259 263 267 264 251 242
239 228 221 224 228 231 236 239 239 240 242 241 241 244 246 244 244 246 246 246 247 247 245 242 241 243 245 246 247 248 247 247 249 250 251 251 251 251 254 257 258 257 256 255 256 257 257 255 255 256 257 258 258 257 256 256 257 258 257 255 253 252 254 257 258 258 257 257 256 254 254 254 254 255 255 255 256 256 258 263 269 270 272 270 256 242
249 240 232 231 232 232 234 236 238 239 242 244 245 246 248 247 247 248 249 250 250 251 251 249 247 247 250 250 250 251 250 249 251 252 253 255 255 256 258 259 259 258 256 254 253 254 255 255 254 253 254 255 256 256 255 254 253 254 255 255 252 250 249 251 253 253 250 248 250 253 255 255 256 259 262 265 266 266 265 267 269 270 269 268 262 254
256 249 242 239 238 239 238 238 240 242 244 246 247 248 249 249 249 250 252 252 252 253 255 255 254 254 255 255 255 255 254 253 254 254 255 257 257 257 258 259 259 258 257 254 251 249 250 250 250 250 250 251 253 254 254 253 251 250 250 251 251 251 249 247 248 248 245 245 250 255 258 260 262 265 267 268 268 268 267 267 269 271 271 269 266 263
255 252 249 245 241 241 242 243 245 248 249 249 247 247 248 249 250 251 252 253 253 254 255 257 258 259 260 260 260 260 259 260 260 259 259 259 260 259 259 259 260 260 258 256 252 249 247 247 247 248 249 250 253 254 254 254 254 252 250 249 249 250 250 248 247 249 250 249 251 255 258 261 264 266 267 266 266 267 268 269 270 269 268 267 267 266
259 256 255 252 248 248 249 248 249 253 255 254 252 250 249 248 249 250 251 252 253 253 254 257 259 262 263 263 264 264 264 264 264 263 262 262 262 261 260 259 259 258 256 255 255 252 249 246 244 245 247 249 251 254 255 255 255 254 253 252 251 251 252 251 251 252 254 254 255 256 258 260 263 265 266 267 266 265 267 269 268 266 264 264 264 264
264 262 261 260 257 256 257 257 257 257 259 259 257 255 254 252 251 251 252 254 254 255 255 255 257 259 262 264 265 265 265 265 266 265 265 264 262 261 261 260 260 258 257 257 257 257 254 250 245 243 245 247 249 251 254 256 256 256 255 254 253 254 255 256 256 256 256 256 257 258 259 260 261 263 263 264 263 261 260 260 262 263 263 262 261 261
Height
5853 5856 5860 5864 5868 5871 5873 5875 5877 5877 5879 5882 5883 5885 5886 5887 5888 5889 5890 5891 5891 5892 5894 5896 5898 5899 5902 5903 5905 5906 5907 5908 5909 5911 5913 5915 5916 5917 5918 5920 5921 5922 5924 5924 5925 5926 5927 5928 5929 5929 5930 5930 5931 5931 5932 5932 5932 5932 5933 5934 5935 5937 5938 5938 5939 5940 5940 5941 5941 5942 5942 5943 5943 5945 5946 5948 5949 5950 5951 5952 5953 5954 5955 5956 5957 5958
5850 5854 5859 5863 5866 5868 5871 5873 5875 5875 5877 5881 5882 5883 5885 5885 5887 5888 5889 5889 5890 5891 5892 5894 5896 5898 5900 5901 5902 5904 5906 5907 5909 5910 5912 5914 5916 5917 5918 5919 5921 5922 5924 5925 5925 5926 5927 5928 5929 5930 5930 5931 5932 5932 5933 5933 5933 5933 5934 5934 5936 5937 5938 5939 5940 5941 5942 5943 5943 5944 5944 5945 5946 5947 5948 5950 5951 5952 5953 5954 5955 5956 5957 5958 5959 5960
5848 5853 5858 5862 5864 5866 5869 5872 5874 5874 5876 5879 5881 5882 5883 5883 5886 5888 5888 5888 5889 5890 5891 5893 5895 5897 5899 5900 5901 5903 5904 5906 5907 5909 5911 5913 5915 5916 5918 5919 5921 5922 5923 5924 5925 5926 5928 5929 5929 5930 5931 5932 5932 5933 5933 5934 5934 5935 5935 5935 5937 5938 5939 5940 5941 5943 5944 5945 5945 5946 5946 5947 5948 5949 5951 5952 5953 5954 5955 5956 5957 5958 5959 5960 5961 5962
5847 5853 5857 5860 5862 5865 5868 5870 5872 5873 5875 5878 5880 5881 5881 5883 5885 5887 5887 5887 5888 5888 5890 5891 5893 5895 5897 5898 5900 5902 5904 5905 5906 5908 5909 5911 5913 5915 5917 5918 5920 5921 5923 5924 5925 5926 5928 5929 5930 5931 5931 5932 5933 5933 5934 5935 5935 5936 5936 5937 5938 5939 5940 5941 5943 5944 5945 5946 5947 5947 5948 5949 5950 5952 5953 5954 5955 5956 5957 5958 5959 5959 5960 5961 5962 5963
5846 5851 5855 5858 5861 5864 5866 5868 5870 5872 5873 5876 5879 5879 5880 5883 5885 5886 5886 5887 5887 5887 5888 5889 5891 5893 5895 5896 5898 5900 5902 5904 5905 5907 5909 5910 5912 5914 5916 5917 5918 5920 5922 5924 5925 5926 5928 5929 5930 5931 5932 5933 5933 5934 5935 5936 5936 5937 5937 5938 5939 5940 5941 5942 5944 5945 5946 5948 5948 5949 5950 5951 5952 5953 5954 5955 5956 5957 5958 5959 5960 5961 5962 5963 5963 5964
5844 5849 5853 5856 5859 5862 5863 5866 5868 5871 5873 5875 5877 5879 5880 5882 5883 5884 5885 5886 5886 5886 5887 5888 5889 5891 5893 5895 5897 5898 5900 5902 5904 5906 5908 5910 5911 5913 5915 5917 5918 5919 5921 5923 5924 5926 5927 5929 5930 5931 5932 5933 5934 5935 5935 5936 5937 5938 5938 5939 5940 5941 5942 5943 5945 5946 5947 5949 5950 5951 5951 5952 5953 5954 5955 5956 5957 5958 5959 5960 5961 5962 5963 5964 5965 5965
5843 5847 5851 5854 5857 5859 5862 5865 5867 5869 5871 5873 5875 5878 5880 5881 5882 5882 5883 5885 5885 5886 5886 5887 5888 5890 5892 5893 5895 5896 5898 5900 5902 5905 5907 5909 5911 5912 5914 5916 5917 5919 5920 5922 5924 5925 5927 5929 5930 5931 5933 5934 5934 5935 5936 5937 5938 5939 5939 5940 5941 5942 5943 5944 5945 5947 5948 5950 5951 5952 5953 5953 5954 5955 5956 5957 5958 5960 5960 5961 5962 5963 5964 5965 5966 5966
5843 5846 5848 5852 5855 5858 5862 5865 5867 5869 5870 5870 5873 5877 5879 5879 5881 5882 5882 5883 5885 5885 5885 5886 5887 5888 5890 5892 5893 5894 5896 5898 5901 5903 5906 5908 5910 5912 5913 5915 5917 5918 5920 5922 5923 5925 5927 5929 5930 5931 5933 5934 5935 5936 5936 5937 5939 5940 5940 5941 5942 5943 5944 5945 5946 5948 5949 5950 5952 5953 5954 5955 5955 5956 5957 5959 5959 5960 5961 5962 5963 5964 5965 5965 5966 5967
5842 5845 5847 5851 5854 5857 5861 5865 5867 5868 5867 5869 5872 5876 5877 5878 5880 5881 5881 5882 5883 5884 5885 5885 5886 5887 5888 5890 5891 5892 5894 5897 5900 5902 5905 5907 5909 5911 5913 5914 5916 5917 5919 5920 5923 5924 5926 5928 5930 5931 5933 5934 5935 5936 5937 5938 5939 5940 5941 5942 5943 5944 5945 5946 5947 5948 5950 5951 5952 5954 5955 5956 5956 5957 5958 5959 5960 5961 5962 5963 5964 5964 5965 5966 5966 5967
5843 5845 5847 5850 5852 5855 5859 5864 5865 5864 5865 5869 5871 5874 5875 5876 5878 5879 5880 5881 5882 5883 5884 5884 5885 5885 5886 5887 5888 5889 5892 5896 5899 5901 5904 5906 5907 5910 5912 5913 5915 5916 5918 5919 5922 5924 5925 5927 5929 5931 5933 5934 5935 5936 5937 5938 5939 5940 5942 5943 5943 5945 5946 5947 5948 5949 5950 5952 5953 5954 5955 5956 5957 5958 5959 5960 5961 5962 5963 5964 5964 5965 5966 5966 5967 5967
5841 5845 5846 5847 5851 5854 5858 5862 5862 5860 5863 5867 5869 5871 5873 5875 5876 5878 5879 5880 5881 5881 5882 5883 5883 5884 5884 5884 5884 5886 5891 5895 5898 5900 5902 5904 5906 5909 5911 5912 5913 5915 5917 5918 5921 5923 5925 5927 5929 5930 5932 5934 5935 5936 5938 5939 5940 5941 5942 5943 5944 5945 5946 5947 5948 5949 5950 5952 5954 5955 5956 5957 5958 5959 5959 5960 5961 5962 5963 5964 5965 5966 5966 5967 5967 5967
5838 5842 5844 5847 5850 5853 5856 5860 5859 5859 5863 5864 5866 5869 5871 5873 5876 5877 5878 5879 5879 5880 5881 5881 5882 5882 5883 5882 5882 5884 5890 5893 5895 5898 5901 5903 5905 5908 5910 5910 5912 5914 5916 5918 5920 5922 5924 5926 5928 5930 5932 5934 5935 5936 5938 5939 5940 5941 5942 5944 5945 5945 5946 5948 5949 5950 5951 5952 5954 5955 5956 5957 5958 5959 5960 5961 5962 5963 5964 5964 5965 5966 5966 5967 5967 5967
5837 5840 5844 5847 5849 5851 5854 5856 5857 5860 5863 5863 5864 5867 5869 5872 5874 5876 5877 5878 5878 5879 5880 5880 5881 5882 5882 5883 5883 5885 5888 5891 5894 5897 5900 5902 5904 5907 5909 5910 5911 5913 5915 5917 5919 5921 5924 5925 5927 5929 5931 5933 5935 5936 5937 5939 5940 5941 5942 5944 5945 5946 5947 5948 5949 5950 5951 5952 5954 5955 5956 5957 5959 5960 5960 5961 5962 5963 5964 5965 5965 5966 5967 5967 5967 5968
5837 5839 5843 5845 5847 5851 5854 5855 5855 5858 5860 5861 5864 5867 5869 5871 5873 5874 5876 5877 5877 5878 5879 5880 5880 5881 5882 5883 5884 5886 5887 5889 5892 5895 5897 5900 5902 5905 5907 5908 5910 5912 5914 5916 5918 5920 5923 5924 5926 5928 5930 5932 5934 5935 5937 5938 5940 5941 5942 5943 5945 5946 5947 5948 5949 5950 5951 5952 5954 5955 5956 5957 5959 5960 5960 5961 5962 5963 5964 5964 5965 5966 5967 5967 5968 5968
5838 5839 5842 5844 5847 5851 5854 5856 5856 5856 5858 5861 5863 5865 5868 5870 5872 5873 5875 5876 5876 5876 5877 5878 5879 5880 5881 5882 5883 5884 5885 5886 5888 5891 5894 5896 5899 5902 5905 5906 5908 5911 5913 5915 5917 5919 5921 5923 5925 5927 5929 5930 5932 5934 5936 5937 5939 5940 5942 5943 5944 5946 5947 5948 5949 5950 5951 5952 5953 5954 5956 5957 5958 5959 5960 5961 5962 5963 5964 5964 5965 5966 5967 5967 5968 5969
5839 5841 5842 5845 5848 5851 5854 5856 5855 5855 5858 5861 5862 5863 5867 5870 5870 5872 5874 5874 5875 5876 5876 5877 5878 5879 5880 5881 5882 5882 5882 5883 5885 5888 5891 5894 5898 5900 5902 5904 5906 5909 5911 5913 5915 5917 5920 5922 5924 5925 5927 5929 5931 5933 5935 5936 5938 5940 5941 5943 5944 5945 5947 5948 5949 5950 5951 5952 5953 5954 5955 5956 5958 5959 5960 5961 5962 5963 5963 5964 5965 5966 5967 5967 5968 5968
5837 5841 5843 5845 5848 5851 5854 5855 5855 5855 5857 5860 5862 5863 5866 5869 5869 5871 5873 5873 5874 5875 5876 5876 5877 5877 5879 5880 5881 5880 5879 5879 5882 5886 5890 5894 5898 5899 5901 5903 5905 5907 5909 5912 5914 5916 5918 5920 5922 5924 5926 5928 5930 5932 5934 5935 5937 5939 5940 5942 5943 5945 5946 5947 5949 5950 5951 5952 5953 5954 5955 5956 5957 5958 5959 5960 5961 5962 5963 5964 5965 5965 5966 5967 5967 5968
5835 5839 5842 5843 5845 5849 5852 5854 5855 5856 5857 5860 5863 5863 5864 5866 5868 5870 5871 5872 5873 5874 5875 5876 5876 5876 5878 5879 5879 5879 5878 5877 5880 5884 5889 5893 5895 5897 5899 5901 5903 5906 5908 5910 5913 5915 5917 5919 5921 5923 5924 5926 5929 5931 5932 5934 5936 5938 5940 5941 5943 5944 5945 5946 5948 5949 5950 5951 5952 5954 5955 5956 5957 5958 5959 5959 5960 5961 5962 5963 5964 5965 5965 5966 5967 5968
5834 5837 5839 5841 5844 5846 5849 5852 5854 5856 5857 5858 5860 5861 5862 5864 5866 5868 5870 5870 5872 5873 5874 5875 5875 5876 5877 5878 5878 5879 5879 5878 5880 5884 5888 5891 5894 5896 5898 5900 5902 5904 5906 5908 5911 5913 5915 5917 5919 5921 5922 5924 5927 5930 5931 5933 5935 5936 5938 5940 5942 5943 5945 5946 5947 5948 5949 5950 5952 5953 5954 5955 5956 5957 5958 5958 5959 5960 5961 5962 5963 5964 5965 5965 5966 5967
5832 5836 5838 5841 5844 5845 5847 5850 5853 5855 5857 5857 5859 5862 5863 5864 5865 5868 5869 5870 5870 5872 5874 5874 5875 5875 5877 5878 5878 5879 5880 5881 5883 5885 5888 5890 5893 5895 5896 5899 5901 5903 5904 5907 5910 5912 5914 5916 5917 5919 5921 5922 5925 5928 5929 5931 5933 5935 5937 5939 5940 5942 5944 5945 5946 5948 5949 5950 5951 5952 5953 5954 5955 5956 5957 5958 5959 5959 5960 5961 5962 5963 5963 5964 5965 5966
5831 5834 5837 5840 5843 5844 5846 5849 5851 5854 5856 5857 5860 5861 5862 5864 5865 5867 5869 5869 5870 5871 5872 5874 5874 5874 5876 5878 5878 5878 5880 5882 5883 5885 5887 5889 5891 5893 5894 5897 5899 5901 5903 5905 5908 5911 5913 5914 5916 5918 5919 5920 5923 5926 5928 5929 5932 5934 5936 5937 5939 5941 5942 5944 5946 5947 5948 5949 5950 5951 5952 5953 5954 5955 5956 5957 5958 5958 5959 5960 5961 5962 5962 5963 5964 5965
5828 5830 5832 5836 5840 5842 5844 5847 5849 5852 5854 5856 5860 5861 5862 5864 5865 5866 5868 5869 5870 5870 5871 5872 5872 5873 5876 5878 5879 5879 5879 5881 5883 5884 5885 5887 5888 5890 5892 5894 5897 5900 5902 5904 5906 5909 5911 5912 5914 5916 5918 5919 5921 5924 5926 5928 5930 5932 5934 5936 5938 5939 5941 5943 5944 5946 5947 5948 5949 5950 5951 5952 5952 5954 5955 5955 5956 5957 5958 5959 5960 5961 5962 5962 5963 5964
5823 5826 5829 5833 5837 5839 5842 5845 5847 5850 5852 5855 5859 5861 5863 5865 5865 5866 5868 5869 5869 5870 5869 5869 5871 5873 5875 5878 5879 5879 5879 5880 5881 5882 5884 5886 5886 5886 5888 5891 5895 5898 5900 5903 5905 5907 5909 5911 5912 5914 5916 5917 5919 5922 5924 5927 5929 5930 5932 5934 5936 5938 5939 5941 5943 5944 5946 5947 5948 5949 5950 5951 5951 5952 5953 5954 5955 5956 5957 5958 5959 5960 5961 5961 5962 5963
5823 5826 5829 5833 5837 5839 5842 5845 5847 5849 5851 5854 5858 5860 5862 5864 5865 5866 5867 5868 5869 5869 5868 5869 5870 5872 5875 5876 5878 5880 5880 5880 5881 5882 5883 5884 5884 5883 5885 5889 5893 5897 5900 5902 5904 5906 5908 5909 5910 5912 5914 5916 5918 5920 5922 5925 5927 5929 5931 5932 5934 5936 5938 5939 5941 5943 5944 5945 5947 5948 5949 5950 5950 5951 5952 5953 5954 5955 5955 5956 5957 5958 5959 5960 5961 5961
5824 5826 5830 5833 5835 5838 5841 5844 5846 5849 5850 5852 5856 5859 5861 5863 5864 5865 5866 5867 5868 5868 5868 5869 5871 5872 5874 5876 5877 5879 5880 5881 5881 5882 5883 5883 5883 5884 5885 5889 5893 5897 5899 5901 5903 5904 5906 5908 5909 5910 5913 5914 5916 5918 5920 5922 5925 5927 5929 5930 5932 5934 5935 5937 5939 5941 5942 5943 5945 5946 5947 5948 5949 5950 5951 5951 5952 5953 5954 5955 5955 5957 5957 5958 5959 5960
5824 5827 5829 5831 5833 5835 5838 5841 5844 5847 5849 5851 5855 5858 5860 5863 5865 5865 5865 5865 5867 5867 5866 5868 5870 5872 5873 5875 5877 5879 5880 5880 5880 5880 5881 5882 5883 5884 5886 5889 5893 5896 5898 5900 5901 5902 5904 5906 5908 5909 5911 5913 5914 5916 5918 5920 5923 5925 5927 5928 5930 5931 5933 5935 5937 5938 5940 5942 5943 5944 5945 5946 5947 5948 5949 5950 5950 5952 5952 5953 5953 5955 5956 5956 5957 5958
5824 5827 5829 5831 5833 5835 5837 5840 5844 5846 5849 5853 5856 5857 5859 5861 5862 5864 5864 5864 5865 5865 5865 5866 5868 5871 5873 5874 5876 5878 5879 5879 5879 5880 5880 5881 5882 5884 5886 5889 5891 5893 5895 5897 5898 5900 5901 5904 5906 5908 5910 5911 5913 5914 5916 5918 5920 5922 5924 5926 5928 5929 5931 5933 5934 5936 5938 5939 5941 5942 5943 5944 5945 5946 5947 5948 5949 5950 5951 5951 5952 5953 5954 5954 5955 5956
5823 5826 5828 5829 5831 5833 5836 5840 5843 5845 5849 5852 5854 5855 5856 5858 5860 5861 5860 5860 5860 5862 5864 5865 5867 5869 5871 5873 5875 5876 5876 5877 5878 5880 5882 5882 5884 5886 5887 5888 5890 5891 5893 5894 5896 5897 5898 5901 5904 5906 5907 5909 5910 5912 5913 5916 5918 5919 5921 5924 5926 5927 5929 5930 5932 5933 5935 5937 5938 5940 5941 5942 5943 5944 5945 5946 5947 5948 5949 5949 5950 5950 5951 5952 5953 5954
5822 5825 5826 5828 5830 5832 5835 5839 5842 5844 5848 5851 5851 5851 5852 5855 5855 5853 5852 5854 5857 5860 5862 5864 5865 5867 5870 5872 5873 5874 5874 5875 5877 5880 5882 5884 5885 5885 5885 5887 5890 5892 5893 5893 5894 5895 5896 5898 5901 5904 5905 5906 5907 5909 5911 5914 5916 5919 5920 5922 5924 5925 5926 5928 5929 5931 5932 5934 5936 5937 5938 5940 5941 5942 5943 5944 5945 5945 5946 5947 5948 5948 5949 5950 5951 5952
5820 5823 5825 5828 5830 5832 5834 5838 5841 5844 5846 5846 5845 5846 5847 5847 5847 5846 5849 5854 5857 5858 5859 5861 5864 5867 5869 5869 5869 5871 5873 5875 5876 5879 5882 5883 5883 5883 5883 5885 5888 5890 5891 5891 5892 5893 5893 5895 5898 5900 5902 5903 5904 5907 5910 5912 5914 5917 5918 5920 5921 5923 5925 5926 5928 5929 5930 5931 5933 5935 5936 5937 5939 5940 5941 5941 5942 5943 5944 5945 5945 5946 5947 5948 5949 5950
5817 5819 5822 5826 5830 5833 5835 5836 5840 5843 5841 5839 5840 5841 5842 5842 5844 5847 5852 5854 5854 5855 5856 5858 5862 5866 5867 5867 5867 5868 5871 5874 5875 5877 5880 5881 5881 5881 5882 5884 5885 5886 5888 5889 5890 5890 5890 5892 5895 5897 5898 5900 5902 5906 5909 5910 5911 5913 5914 5916 5917 5919 5923 5925 5926 5927 5928 5930 5931 5932 5933 5934 5935 5936 5937 5938 5939 5940 5941 5942 5942 5943 5944 5945 5946 5948
5814 5816 5819 5822 5826 5831 5833 5833 5836 5836 5833 5833 5836 5836 5835 5840 5844 5848 5851 5852 5852 5853 5854 5857 5861 5864 5865 5866 5865 5866 5868 5871 5873 5874 5876 5878 5879 5880 5882 5884 5884 5885 5887 5888 5888 5888 5888 5890 5892 5894 5896 5899 5902 5905 5908 5909 5909 5910 5912 5913 5914 5916 5919 5920 5921 5924 5926 5927 5928 5929 5929 5930 5932 5933 5934 5935 5936 5937 5938 5939 5939 5940 5942 5943 5945 5947
5813 5814 5816 5819 5822 5827 5828 5827 5828 5827 5826 5829 5833 5831 5832 5838 5843 5846 5849 5850 5851 5851 5853 5855 5858 5860 5861 5863 5864 5864 5866 5870 5872 5871 5871 5873 5875 5877 5880 5882 5882 5883 5885 5886 5886 5886 5887 5890 5892 5893 5895 5898 5901 5904 5905 5905 5906 5908 5909 5911 5913 5914 5915 5916 5917 5920 5923 5924 5925 5926 5926 5927 5928 5930 5931 5932 5933 5934 5935 5935 5936 5938 5940 5941 5942 5943
5810 5812 5814 5817 5821 5823 5823 5823 5824 5824 5824 5828 5831 5831 5834 5839 5842 5844 5846 5847 5848 5849 5850 5853 5854 5855 5857 5860 5862 5863 5865 5869 5870 5869 5868 5869 5871 5873 5876 5879 5880 5881 5882 5884 5885 5885 5886 5888 5890 5892 5894 5897 5898 5900 5901 5902 5904 5905 5906 5908 5911 5913 5913 5915 5917 5918 5919 5920 5921 5922 5924 5924 5926 5927 5928 5929 5929 5930 5930 5931 5934 5936 5937 5938 5938 5939
5808 5810 5812 5816 5819 5820 5820 5822 5822 5822 5822 5826 5830 5832 5834 5836 5838 5841 5843 5845 5846 5847 5848 5850 5852 5854 5855 5857 5860 5862 5864 5867 5868 5868 5867 5866 5867 5870 5874 5876 5878 5880 5882 5884 5885 5886 5886 5888 5889 5889 5892 5894 5895 5896 5898 5900 5902 5903 5905 5906 5909 5909 5910 5913 5914 5915 5917 5918 5917 5918 5920 5922 5923 5924 5925 5926 5926 5926 5926 5928 5930 5931 5932 5933 5935 5937
5808 5809 5810 5813 5816 5819 5820 5820 5819 5820 5823 5826 5828 5829 5831 5832 5835 5838 5841 5843 5844 5846 5847 5849 5851 5853 5854 5855 5856 5858 5861 5863 5864 5866 5866 5866 5866 5868 5871 5874 5876 5878 5880 5882 5884 5885 5886 5887 5887 5887 5889 5892 5893 5895 5896 5897 5899 5902 5904 5905 5905 5905 5906 5908 5909 5910 5912 5913 5913 5914 5916 5918 5919 5920 5921 5921 5922 5923 5924 5926 5927 5927 5928 5930 5933 5934
5806 5807 5809 5812 5814 5816 5816 5816 5817 5819 5823 5824 5825 5826 5828 5830 5832 5836 5838 5840 5842 5843 5845 5847 5850 5852 5852 5853 5854 5855 5856 5858 5860 5864 5866 5867 5867 5867 5868 5871 5873 5874 5875 5877 5879 5881 5882 5883 5884 5886 5887 5890 5892 5894 5895 5896 5898 5901 5902 5902 5901 5901 5902 5903 5904 5905 5907 5908 5908 5910 5912 5914 5915 5916 5917 5917 5919 5921 5922 5924 5925 5925 5926 5928 5930 5931
5803 5805 5807 5810 5812 5812 5813 5814 5815 5817 5819 5821 5822 5825 5827 5828 5830 5833 5836 5838 5839 5841 5843 5844 5847 5848 5849 5851 5852 5852 5853 5854 5857 5860 5863 5866 5867 5867 5867 5869 5871 5871 5871 5872 5874 5877 5878 5879 5881 5882 5884 5887 5890 5892 5894 5896 5896 5897 5898 5898 5897 5898 5899 5900 5901 5902 5904 5905 5906 5907 5908 5910 5912 5913 5914 5915 5916 5917 5918 5921 5922 5924 5925 5926 5927 5927
5802 5803 5805 5808 5810 5810 5811 5812 5813 5815 5817 5819 5821 5823 5825 5825 5827 5829 5832 5835 5837 5839 5841 5842 5843 5845 5847 5848 5849 5850 5851 5852 5853 5856 5859 5862 5864 5865 5866 5867 5869 5871 5871 5871 5872 5874 5875 5877 5879 5880 5882 5884 5887 5888 5890 5892 5893 5894 5894 5894 5895 5896 5896 5897 5899 5901 5902 5904 5904 5903 5904 5906 5907 5908 5910 5911 5912 5912 5914 5916 5919 5921 5923 5924 5923 5922
5800 5802 5803 5806 5808 5809 5809 5810 5811 5814 5816 5817 5819 5821 5822 5822 5824 5826 5829 5833 5835 5837 5838 5839 5840 5841 5844 5845 5847 5848 5849 5848 5850 5852 5855 5858 5860 5861 5862 5864 5866 5868 5870 5871 5871 5873 5874 5875 5877 5878 5880 5882 5883 5885 5887 5888 5888 5890 5891 5892 5892 5893 5894 5895 5897 5898 5900 5901 5900 5900 5900 5901 5903 5905 5906 5907 5907 5907 5908 5911 5913 5916 5918 5918 5918 5917
5799 5800 5801 5803 5804 5806 5806 5807 5809 5812 5814 5815 5818 5819 5819 5819 5822 5824 5827 5830 5832 5833 5834 5835 5836 5837 5840 5842 5844 5846 5846 5847 5848 5850 5853 5855 5856 5857 5859 5860 5862 5864 5866 5868 5869 5871 5872 5874 5875 5875 5877 5878 5880 5882 5883 5884 5884 5886 5888 5889 5889 5890 5892 5893 5894 5894 5895 5896 5897 5896 5897 5898 5900 5901 5902 5902 5902 5902 5904 5905 5907 5910 5911 5911 5911 5912
5797 5798 5800 5801 5801 5801 5802 5805 5807 5810 5812 5814 5816 5816 5817 5818 5819 5822 5825 5827 5828 5830 5831 5833 5833 5835 5836 5839 5841 5843 5844 5845 5846 5848 5850 5852 5854 5855 5857 5858 5859 5860 5862 5864 5866 5868 5869 5871 5872 5872 5874 5875 5877 5878 5880 5881 5881 5883 5884 5886 5886 5887 5888 5889 5889 5890 5891 5892 5892 5893 5894 5895 5896 5897 5897 5898 5898 5898 5900 5901 5902 5904 5905 5905 5905 5907
5795 5796 5798 5800 5800 5800 5801 5803 5805 5808 5810 5812 5813 5814 5814 5815 5816 5818 5822 5823 5824 5826 5829 5830 5831 5832 5833 5835 5837 5839 5840 5841 5843 5845 5848 5850 5851 5853 5854 5855 5856 5858 5859 5860 5862 5864 5865 5866 5867 5869 5870 5872 5872 5873 5875 5876 5877 5879 5881 5882 5883 5883 5884 5885 5885 5886 5887 5888 5888 5889 5890 5891 5892 5893 5893 5893 5894 5895 5896 5897 5898 5899 5900 5900 5901 5903
5794 5795 5797 5798 5799 5800 5801 5802 5803 5805 5807 5809 5810 5811 5812 5812 5813 5816 5818 5820 5821 5822 5825 5827 5828 5829 5830 5832 5833 5835 5836 5838 5840 5842 5844 5846 5848 5850 5851 5852 5854 5855 5857 5858 5859 5860 5861 5862 5863 5864 5866 5867 5867 5868 5869 5870 5871 5874 5876 5877 5878 5879 5880 5881 5882 5882 5883 5883 5884 5885 5885 5887 5888 5889 5889 5890 5891 5892 5892 5893 5894 5895 5895 5895 5897 5898
5792 5793 5795 5796 5797 5799 5800 5801 5802 5803 5805 5806 5807 5808 5809 5811 5811 5813 5815 5816 5817 5818 5821 5823 5825 5826 5827 5828 5830 5831 5832 5834 5836 5838 5840 5842 5844 5846 5847 5849 5851 5852 5854 5855 5856 5857 5858 5859 5860 5861 5862 5862 5863 5864 5865 5865 5866 5868 5870 5872 5874 5874 5875 5876 5877 5878 5879 5879 5880 5881 5881 5882 5883 5885 5886 5887 5888 5888 5888 5888 5889 5889 5889 5890 5892 5893
5791 5792 5793 5794 5795 5797 5798 5799 5800 5801 5802 5803 5804 5806 5807 5809 5810 5811 5812 5813 5814 5815 5817 5819 5821 5822 5823 5824 5825 5826 5829 5831 5832 5834 5836 5838 5840 5841 5843 5845 5847 5849 5850 5851 5852 5854 5855 5856 5857 5857 5858 5858 5860 5861 5861 5862 5863 5864 5865 5868 5869 5870 5871 5872 5873 5874 5875 5875 5875 5875 5876 5878 5879 5880 5882 5883 5884 5884 5884 5883 5884 5885 5886 5887 5887 5889
5790 5791 5793 5793 5794 5795 5796 5797 5798 5799 5800 5801 5802 5803 5805 5806 5808 5809 5810 5811 5812 5813 5814 5815 5816 5818 5819 5820 5822 5823 5825 5827 5829 5830 5832 5833 5835 5837 5838 5840 5842 5844 5846 5847 5848 5849 5851 5852 5853 5853 5854 5855 5855 5856 5857 5858 5859 5860 5861 5864 5865 5866 5867 5868 5868 5869 5870 5870 5870 5870 5872 5873 5875 5876 5877 5878 5879 5879 5879 5879 5880 5880 5882 5883 5884 5885
5789 5790 5791 5792 5793 5794 5794 5795 5796 5797 5799 5800 5800 5802 5803 5804 5805 5806 5807 5808 5810 5811 5811 5812 5812 5813 5815 5817 5819 5820 5822 5823 5825 5826 5827 5829 5831 5833 5834 5836 5838 5839 5841 5842 5843 5845 5846 5847 5848 5849 5850 5851 5852 5852 5853 5853 5854 5855 5857 5859 5860 5862 5863 5864 5864 5864 5865 5866 5866 5867 5868 5869 5870 5871 5872 5873 5873 5874 5874 5874 5875 5876 5877 5878 5879 5880
5788 5790 5790 5791 5792 5792 5793 5794 5795 5796 5797 5797 5798 5799 5801 5802 5803 5804 5805 5806 5807 5808 5809 5809 5809 5810 5811 5812 5814 5816 5818 5819 5820 5822 5823 5825 5826 5828 5830 5831 5832 5834 5835 5835 5837 5840 5841 5842 5844 5845 5846 5847 5848 5848 5849 5849 5850 5851 5852 5853 5854 5856 5858 5859 5860 5859 5860 5861 5862 5862 5863 5864 5865 5865 5867 5868 5868 5868 5868 5869 5870 5870 5871 5872 5873 5874
5788 5789 5788 5789 5790 5791 5791 5792 5793 5794 5795 5795 5796 5797 5798 5799 5800 5800 5801 5803 5804 5805 5806 5807 5807 5807 5807 5808 5810 5812 5813 5814 5815 5817 5819 5821 5822 5823 5824 5826 5827 5829 5830 5830 5831 5833 5836 5838 5839 5841 5841 5843 5843 5844 5845 5845 5846 5847 5848 5849 5850 5851 5852 5853 5854 5855 5854 5855 5856 5857 5858 5859 5859 5860 5861 5862 5863 5864 5864 5864 5864 5865 5865 5866 5867 5868
5786 5787 5787 5788 5789 5790 5790 5791 5792 5792 5793 5793 5794 5795 5796 5796 5797 5797 5798 5799 5800 5802 5803 5804 5805 5805 5805 5805 5806 5808 5809 5810 5811 5812 5814 5815 5817 5818 5819 5821 5822 5824 5826 5826 5827 5828 5830 5832 5834 5835 5837 5838 5839 5840 5840 5840 5841 5842 5843 5844 5845 5846 5847 5848 5849 5849 5849 5850 5852 5852 5852 5853 5855 5856 5856 5856 5857 5858 5859 5859 5859 5859 5860 5861 5862 5863